Weather History for Toledo, OH

Change the Weather History Date:

Saturday, June 29, 2013

  Actual Average Record
Temperature  
Mean Temperature 69 °F 73 °F  
Max Temperature 76 °F 84 °F 100 °F (1952)
Min Temperature 61 °F 62 °F 47 °F (1943)
Degree Days  
Heating Degree Days 0 0  
Month to date heating degree days 31 35  
Since 1 June heating degree days 31 35  
Since 1 July heating degree days 6165 6145  
Cooling Degree Days 4 8  
Month to date cooling degree days 151 162  
Year to date cooling degree days 245 215  
Since 1 June cooling degree days 151 162  
Growing Degree Days 18 (Base 50)    
Moisture  
Dew Point 62 °F    
Average Humidity 79    
Maximum Humidity 97    
Minimum Humidity 60    
Precipitation  
Precipitation 0.23 in 0.11 in 2.13 in (1979)
Month to date precipitation 6.32 3.46  
Year to date precipitation 20.82 16.83  
Snow  
Snow 0.00 in 0.00 in - ()
Month to date snowfall 0.0 0.0  
Since 1 June snowfall 0.0 0.0  
Since 1 July snowfall 22.4 37.6  
Snow Depth 0.00 in    
Sea Level Pressure  
Sea Level Pressure 29.62 in    
Wind  
Wind Speed 3 mph (NNE)    
Max Wind Speed 7 mph    
Max Gust Speed -    
Visibility 9 miles    
Events Rain , Thunderstorm    
T = Trace of Precipitation, MM = Missing Value Source: NWS Daily Summary

Daily Weather History Graph

Daily Weather History Graph

Search for Another Location

Airport:

Trip Planner

Search our weather history database for the weather conditions in past years. The results will help you decide how hot, cold, wet, or windy it might be!

Date:

Astronomy

Jun. 29, 2013 Rise Set
Actual Time 6:04 AM EDT 9:13 PM EDT
Civil Twilight 5:30 AM EDT 9:47 PM EDT
Nautical Twilight 4:46 AM EDT 10:30 PM EDT
Astronomical Twilight 3:54 AM EDT 11:22 PM EDT
Moon 12:36 AM EDT (6/29) 1:20 PM EDT (6/29)
Length of Visible Light 16h 17m
Length of Day
15h 09m
Waning Gibbous, 56% of the Moon is Illuminated
Jun 29
Waning Gibbous
Jun 30
Last Quarter
Jul 8
New
Jul 15
First Quarter
Jul 22
Full

Hourly Weather History & Observations

Time (EDT) Temp. Dew Point Humidity Pressure Visibility Wind Dir Wind Speed Gust Speed Precip Events Conditions
12:52 AM 63.0 °F 60.1 °F 90% 29.56 in 10.0 mi West 4.6 mph - N/A   Clear
1:52 AM 62.1 °F 60.1 °F 93% 29.56 in 10.0 mi West 4.6 mph - N/A   Partly Cloudy
2:52 AM 62.1 °F 60.1 °F 93% 29.55 in 10.0 mi Calm Calm - N/A   Clear
3:52 AM 62.1 °F 59.0 °F 90% 29.55 in 10.0 mi West 3.5 mph - N/A   Clear
4:52 AM 61.0 °F 59.0 °F 93% 29.56 in 10.0 mi Calm Calm - N/A   Clear
5:52 AM 61.0 °F 57.9 °F 90% 29.56 in 10.0 mi Calm Calm - N/A   Scattered Clouds
6:52 AM 62.1 °F 60.1 °F 93% 29.57 in 10.0 mi NW 3.5 mph - N/A   Overcast
7:52 AM 64.0 °F 61.0 °F 90% 29.58 in 10.0 mi North 3.5 mph - N/A   Mostly Cloudy
8:06 AM 64.4 °F 60.8 °F 88% 29.58 in 10.0 mi North 3.5 mph - N/A   Mostly Cloudy
8:18 AM 64.4 °F 60.8 °F 88% 29.59 in 9.0 mi North 3.5 mph - N/A   Mostly Cloudy
8:52 AM 64.0 °F 61.0 °F 90% 29.59 in 8.0 mi NNW 3.5 mph - N/A   Overcast
9:52 AM 66.9 °F 62.1 °F 84% 29.60 in 10.0 mi NNE 5.8 mph - N/A   Overcast
10:37 AM 69.8 °F 62.6 °F 78% 29.60 in 10.0 mi NNE 4.6 mph - N/A   Overcast
10:52 AM 70.0 °F 62.1 °F 76% 29.60 in 10.0 mi Calm Calm - N/A   Overcast
11:15 AM 69.8 °F 62.6 °F 78% 29.61 in 10.0 mi North 4.6 mph - N/A   Overcast
11:52 AM 72.0 °F 61.0 °F 68% 29.60 in 10.0 mi Variable 4.6 mph - N/A   Mostly Cloudy
12:08 PM 73.4 °F 60.8 °F 65% 29.61 in 10.0 mi Variable 5.8 mph - N/A   Overcast
12:31 PM 73.4 °F 60.8 °F 65% 29.61 in 10.0 mi Calm Calm - N/A   Mostly Cloudy
12:52 PM 73.0 °F 61.0 °F 66% 29.60 in 10.0 mi Calm Calm - N/A   Mostly Cloudy
12:59 PM 75.2 °F 60.8 °F 61% 29.60 in 10.0 mi NW 4.6 mph - N/A   Scattered Clouds
1:52 PM 73.9 °F 61.0 °F 64% 29.58 in 10.0 mi NNW 6.9 mph - N/A   Scattered Clouds
2:52 PM 75.0 °F 61.0 °F 62% 29.59 in 10.0 mi ENE 5.8 mph - N/A   Overcast
3:18 PM 75.2 °F 60.8 °F 61% 29.60 in 10.0 mi NE 9.2 mph - N/A Thunderstorm Overcast
3:30 PM 73.4 °F 62.6 °F 69% 29.60 in 10.0 mi ENE 13.8 mph - N/A Thunderstorm Overcast
3:52 PM 71.1 °F 62.1 °F 73% 29.61 in 10.0 mi ENE 15.0 mph - N/A Thunderstorm Overcast
4:52 PM 66.9 °F 61.0 °F 81% 29.63 in 10.0 mi Calm Calm - N/A Thunderstorm Overcast
5:09 PM 68.0 °F 60.8 °F 78% 29.63 in 10.0 mi East 4.6 mph - N/A   Mostly Cloudy
5:17 PM 68.0 °F 62.6 °F 83% 29.63 in 10.0 mi East 3.5 mph - 0.00 in Rain , Thunderstorm Light Rain
5:32 PM 66.2 °F 62.6 °F 88% 29.63 in 10.0 mi Calm Calm - 0.00 in Rain Light Rain
5:52 PM 68.0 °F 63.0 °F 84% 29.64 in 10.0 mi Calm Calm - 0.01 in Rain Light Rain
6:52 PM 68.0 °F 63.0 °F 84% 29.64 in 10.0 mi Calm Calm - 0.00 in Rain Light Rain
7:52 PM 68.0 °F 64.0 °F 87% 29.65 in 10.0 mi North 3.5 mph - 0.00 in   Mostly Cloudy
8:12 PM 68.0 °F 64.4 °F 88% 29.67 in 10.0 mi NNE 3.5 mph - N/A   Mostly Cloudy
8:23 PM 69.8 °F 64.4 °F 83% 29.67 in 10.0 mi North 6.9 mph - N/A Thunderstorm Thunderstorm
8:44 PM 66.2 °F 62.6 °F 88% 29.68 in 8.0 mi NE 9.2 mph - N/A Thunderstorm Thunderstorm
8:52 PM 66.0 °F 63.0 °F 90% 29.68 in 7.0 mi ENE 6.9 mph - N/A Thunderstorm Thunderstorm
9:18 PM 66.2 °F 64.4 °F 94% 29.70 in 4.0 mi North 8.1 mph - 0.00 in Rain , Thunderstorm Light Thunderstorms and Rain
9:25 PM 66.2 °F 62.6 °F 88% 29.70 in 3.0 mi NE 10.4 mph - 0.01 in Rain , Thunderstorm Light Thunderstorms and Rain
9:33 PM 64.4 °F 62.6 °F 94% 29.70 in 2.0 mi NE 10.4 mph - 0.05 in Rain Heavy Rain
9:44 PM 64.4 °F 62.6 °F 94% 29.70 in 2.5 mi NNE 9.2 mph - 0.14 in Rain Heavy Rain
9:52 PM 64.9 °F 62.1 °F 90% 29.70 in 3.0 mi NNE 9.2 mph - 0.18 in Rain Rain
10:52 PM 64.9 °F 61.0 °F 87% 29.71 in 10.0 mi NNE 4.6 mph - 0.04 in   Overcast
11:52 PM 64.0 °F 60.1 °F 87% 29.71 in 10.0 mi NNE 6.9 mph - N/A   Partly Cloudy